Starlink 30845

operational
NORAD ID: 58207 Int'l Des: 2023-170 Owner: SPXS Country: US Constellation: starlink
LEOCIRCULAR

Über Starlink 30845

Beschreibung wird geladen...

Live-Position

3D-Globus wird geladen...

Nächste Überflüge

Höhenverlauf

Altitude vs Time

uPlot chart will show altitude changes over time

Zweizeiliger Elementsatz

1 58207U 23170B 25303.00457123 .00003292 00000-0 25856-3 0 9995
2 58207 43.0013 185.8219 0001419 265.1910 94.8771 15.02550293110626
Epoch: 30. Okt. 2025 • Age: 22 hours

Aktueller Status

Höhe 571.0 km
Geschwindigkeit 7.58 km/s
Subsatellitenpunkt -42.17°S, 66.46°E
Startdatum 4. Nov. 2023
Alter 1.9 years
Typ internet

Technische Details

Klassifizierung Payload
Masse 730.00 kg
Trockenmasse 700.00 kg
Gesamtmasse 730.00 kg
Länge 0.30 m
Durchmesser 4.10 m
Spannweite 29.00 m
Form Box + pan
Hersteller SPXS
Bus-Typ Starlink V2M
Phasenstatus In Orbit
Besitzer/Staat SPXS/US

Große Konstellationen

Loading constellations...